Location: Wilsall
(45.9940°N, 110.6590°W)
Time: 13:20:38
(UTC-06:00)

Daily predictions for brighter satellites

Satellite Brightness Start Highest point End
(mag) Time Altitude Azimuth Time Altitude Azimuth Time Altitude Azimuth
Cosmos 1725 Rocket 4.5 21:48:02 10° N 21:54:03 46° ENE 21:59:58 10° SSE
Cosmos 2297 Rocket 4.1 21:49:17 10° WSW 21:54:29 36° NW 21:59:43 10° NNE
Helios 1B rocket 2.7 21:50:30 10° N 21:54:41 77° WNW 21:58:48 10° SSW
Terra 3.7 21:52:08 10° E 21:55:07 17° ENE 21:58:07 10° NNE
Cosmos 1300 3.4 21:53:39 10° N 21:57:16 39° ENE 22:00:52 10° SSE
ATLAS 5 CENTAUR R/B 2.7 21:54:36 10° SW 21:59:15 56° NW 22:04:23 10° NNE
Cosmos 1802 Rocket 4.0 21:53:15 10° N 21:59:26 82° E 22:05:36 10° S
Cosmos 2263 Rocket 3.2 21:55:27 10° SSE 21:59:52 25° ESE 22:04:19 10° NE
Cosmos 1151 Rocket 4.0 22:08:34 10° N 22:12:36 34° ENE 22:16:22 11° SE
Cosmos 1328 Rocket 3.7 22:08:26 10° N 22:12:44 59° ENE 22:16:59 10° SSE
Cosmos 1766 Rocket 3.5 22:08:34 10° S 22:12:54 89° E 22:17:17 10° N
Cosmos 1242 Rocket 4.1 22:11:27 10° NNW 22:14:54 36° W 22:18:19 10° SSW
SL-14 R/B 3.5 22:12:32 10° S 22:16:21 49° E 22:20:09 10° NNE
SPOT 1/Viking Rocket 3.9 22:13:45 10° SE 22:18:44 53° ENE 22:23:45 10° N
Cosmos 1356 Rocket 4.4 22:15:49 10° SSW 22:19:59 52° WNW 22:24:13 10° N
Cosmos 2016 Rocket 4.1 22:13:57 10° N 22:20:15 83° W 22:26:25 10° S
Cosmos 1515 Rocket 3.8 22:16:57 10° N 22:21:13 52° ENE 22:25:09 12° SSE
USA 234 3.8 22:15:33 10° ENE 22:21:23 33° SE 22:27:10 10° SSW
Cosmos 1674 4.1 22:18:33 10° SSW 22:22:06 40° WNW 22:25:40 10° N
Cosmos 468 Rocket 4.5 22:20:15 10° NNW 22:25:17 57° WSW 22:30:18 10° S
RESURS DK-1 3.3 22:22:20 10° NW 22:26:18 42° WSW 22:30:14 10° S
MetOp-A 4.4 22:22:01 10° S 22:27:21 72° WSW 22:32:44 10° NNW
H-2A R/B 3.6 22:24:41 10° ESE 22:27:55 22° ENE 22:31:11 10° NNE
ERS-1 Rocket 3.6 22:23:13 10° S 22:28:10 56° W 22:33:08 10° NNW
Cosmos 1743 Rocket 3.6 22:24:24 10° S 22:28:38 60° E 22:32:55 10° NNE
USA 245 3.4 22:26:03 11° SSE 22:29:36 89° ENE 22:34:17 10° NNW
Cosmos 1455 3.8 22:26:48 10° NNE 22:29:54 22° ENE 22:32:20 13° ESE
Cosmos 1328 3.8 22:26:00 10° S 22:30:01 70° E 22:34:03 10° NNE
Cosmos 2058 3.8 22:26:59 13° SSE 22:30:19 34° E 22:34:08 10° NNE
Cosmos 1603 4.4 22:26:19 10° NW 22:31:47 51° WSW 22:37:11 10° S
CZ-4C R/B 3.7 22:31:21 12° SE 22:32:56 14° ESE 22:35:39 10° ENE
ARGOS 3.3 22:28:29 10° SSE 22:33:54 81° WSW 22:39:21 10° NNW
YAOGAN 11 4.3 22:33:32 10° S 22:38:01 76° WSW 22:42:36 10° NNW
Cosmos 2228 Rocket 3.3 22:35:47 10° NNW 22:40:23 79° W 22:44:46 11° S
Cosmos 371 Rocket 3.8 22:36:52 10° NNW 22:41:37 57° WSW 22:46:04 11° S
Cosmos 220 Rocket 4.1 22:37:30 10° SSW 22:41:55 83° WNW 22:46:19 10° NNE
EO 1 Delta rocket 3.8 22:37:38 12° SSE 22:42:00 86° ENE 22:46:47 10° N
Cosmos 2233 Rocket 4.1 22:37:16 10° N 22:43:28 68° E 22:48:44 14° SSE
Cosmos 540 Rocket 4.0 22:39:30 10° NNW 22:44:30 47° ENE 22:48:19 16° SE
Cosmos 1943 3.3 22:39:05 10° NNW 22:44:45 79° WSW 22:49:30 15° SSE
Cosmos 1503 Rocket 4.5 22:40:45 11° S 22:45:17 40° ESE 22:50:07 10° NE
Nimbus 7 Rocket 4.5 22:40:03 10° NNE 22:46:04 67° ESE 22:51:58 10° S
ERBS 3.9 22:46:58 10° WNW 22:49:48 25° SW 22:51:46 15° S
CZ-3A R/B 1.1 22:58:13 10° NNW 22:58:55 18° NNE 22:58:55 18° NNE
Abrixas rocket 3.9 22:59:04 10° W 23:01:34 21° SW 23:02:33 18° S
H-2A R/B 2.4 22:58:01 14° S 23:02:40 69° WSW 23:08:08 10° NNW
Lacrosse 5 3.7 23:03:15 10° WNW 23:06:56 21° WSW 23:10:17 11° SSW
Sich 1 4.3 23:05:50 19° ESE 23:07:24 24° E 23:10:51 10° NE
SPOT 5 3.9 23:03:27 10° S 23:08:07 43° W 23:13:03 10° NNW
Cosmos 2151 3.0 23:04:24 12° S 23:08:18 81° W 23:12:39 10° N
SME Rocket 4.4 23:09:38 18° ESE 23:12:04 33° ENE 23:16:40 10° N
Cosmos 1626 2.1 23:12:41 19° S 23:15:14 88° W 23:18:59 10° N
Cosmos 1356 3.9 23:12:38 13° SSW 23:15:38 58° WNW 23:19:06 10° N
Landsat 7 4.0 23:14:00 19° S 23:17:24 67° WSW 23:22:10 10° NNW
Cosmos 1703 3.2 23:14:37 19° S 23:17:26 88° W 23:21:28 10° N
Tiangong 1 2.7 23:19:13 10° WSW 23:20:43 18° SW 23:20:43 18° SW
Cosmos 1707 Rocket 3.9 23:18:53 10° N 23:23:17 52° ENE 23:25:27 27° SE
SL-19 R/B 4.3 23:18:39 10° NNE 23:23:59 61° ESE 23:27:46 21° S
deb Chang Zheng 4 3.8 23:20:14 10° NNE 23:24:30 51° E 23:26:37 27° SSE
Abrixas 2.0 23:23:25 10° WSW 23:26:08 80° SSE 23:28:22 14° ENE
Cosmos 1354 Rocket 4.0 23:25:58 10° SSW 23:31:13 83° WNW 23:36:29 10° NNE
Terra 2.0 23:29:25 23° S 23:32:20 68° WSW 23:37:06 10° NNW
PSLV R/B 2.9 23:32:07 51° SE 23:32:40 70° ENE 23:35:31 10° N
Cosmos 2278 Rocket 4.1 23:32:57 12° ESE 23:33:46 13° E 23:36:05 10° ENE
MINOTAUR R/B 4.4 23:37:36 54° ESE 23:37:36 54° ESE 23:40:21 10° NNE
Cosmos 304 Rocket 4.3 23:33:09 10° NNW 23:37:48 51° WSW 23:40:25 24° S
Cosmos 2285 Rocket 4.3 23:32:14 10° NNW 23:38:30 63° WSW 23:42:35 23° S
Cosmos 2034 Rocket 4.2 23:34:33 10° N 23:40:53 63° E 23:44:27 26° SSE
Cosmos 1666 Rocket 3.8 23:39:27 32° SSE 23:41:18 56° E 23:45:40 10° NNE
IGS 5A 4.0 23:39:22 25° SSW 23:41:32 52° W 23:45:38 10° NNW
CARTOSAT-1 4.2 23:40:30 23° SSW 23:42:52 49° W 23:47:05 10° NNW
DELTA 2 DEB (DPAF) 4.2 23:41:10 31° SE 23:43:10 66° ENE 23:47:37 10° N
Cosmos 2263 Rocket 2.9 23:37:58 10° SW 23:43:25 54° WNW 23:48:56 10° NNE
CZ-4 R/B 3.8 23:39:33 10° NNE 23:44:25 74° ESE 23:46:58 28° S
Cosmos 1891 Rocket 4.4 23:38:54 10° N 23:44:59 74° E 23:48:21 28° SSE
CZ-2C R/B 4.3 23:44:55 20° ESE 23:48:12 36° ENE 23:53:16 10° N
Cosmos 2084 Rocket 3.1 23:45:55 10° NW 23:49:45 87° NE 23:50:58 42° SE
Cosmos 1805 Rocket 3.6 23:49:44 27° SSW 23:52:04 76° W 23:56:24 10° N
Cosmos 1633 Rocket 3.0 23:54:01 37° SSE 23:55:34 65° E 23:59:55 10° NNE
